Dewpoint
33 34 35 34 34 35 33 33 31 32 31 31 33 36 40 42 39 37 37 37 36 35 34 30 27 25 23 23 22 21 19 17 18 20 19 18 18 17 17 16 17 17 17 17
30 33 32 31 33 34 35 34 34 33 32 34 34 36 40 39 38 37 36 36 36 35 33 29 26 24 22 22 22 22 19 17 19 18 16 18 16 16 14 16 16 16 16 16
32 32 30 29 30 30 31 32 32 29 30 32 32 34 36 39 38 37 37 36 35 35 32 29 26 24 22 23 23 21 18 17 17 16 15 17 15 13 14 15 15 15 15 16
33 31 27 30 30 30 29 30 31 31 31 31 31 34 36 39 39 38 37 36 35 35 33 30 27 24 23 24 22 21 18 16 16 15 14 15 13 12 14 13 14 15 15 15
31 30 30 29 27 28 27 27 29 30 31 31 32 32 34 36 39 38 37 37 37 35 33 29 26 24 22 23 21 19 16 15 14 14 14 14 11 12 13 13 14 15 14 15
33 30 25 26 28 32 30 24 28 33 33 32 31 31 33 33 37 37 37 37 35 34 31 27 24 23 22 21 19 17 16 15 15 15 14 12 12 13 13 14 13 13 13 15
33 32 33 32 29 31 26 26 29 33 33 32 31 35 35 33 33 35 35 33 33 31 27 25 22 22 20 20 18 16 17 16 15 14 14 12 14 12 13 13 13 15 15 17
33 31 28 33 32 29 30 31 32 34 34 33 33 32 32 33 32 32 32 31 30 28 26 22 19 19 18 17 16 16 15 14 14 13 11 12 12 11 13 13 13 14 16 16
32 32 33 34 33 34 34 33 35 35 35 34 33 32 32 32 32 31 30 29 28 26 23 20 18 17 16 15 15 15 14 12 12 11 11 13 10 11 13 13 14 14 15 15
31 32 33 35 36 36 37 36 37 36 36 35 33 33 33 33 32 31 29 28 25 24 22 19 17 16 15 14 14 13 12 11 10 10 11 12 10 13 14 14 13 13 14 14
32 33 34 34 36 36 37 37 37 38 37 36 35 34 34 34 33 31 28 26 23 23 22 19 16 15 15 14 14 12 11 9 9 10 11 10 9 12 13 15 14 14 14 15
30 33 33 33 34 35 36 36 37 38 38 37 36 34 34 34 35 33 29 23 21 22 21 18 15 14 14 15 13 11 10 9 10 10 12 9 12 14 16 15 15 14 14 13
32 34 35 36 37 38 36 37 39 40 40 38 37 36 36 35 36 35 31 23 20 21 19 16 14 14 14 15 14 12 11 11 11 13 13 10 13 14 13 13 13 12 12 11
38 37 34 34 36 35 35 35 36 37 38 39 39 39 38 37 36 35 32 28 22 17 15 15 14 15 15 15 14 13 12 13 14 14 13 13 14 14 13 12 11 10 10 10
36 37 36 36 33 33 34 35 34 33 33 33 35 35 36 36 36 36 35 29 20 16 15 15 15 15 16 15 14 15 13 14 14 13 12 13 15 14 12 12 11 9 8 8
33 35 35 34 33 32 33 33 33 33 33 32 32 32 33 35 36 36 31 22 20 18 16 16 15 16 16 14 13 13 13 12 12 10 10 14 14 13 12 12 11 10 9 8
32 31 31 31 30 31 32 32 33 33 33 31 31 32 33 34 34 32 27 22 22 21 18 17 17 16 15 14 14 15 14 12 10 5 9 14 14 13 12 12 11 10 9 10
33 32 32 31 30 30 31 31 32 31 31 30 32 32 32 32 32 32 27 21 19 19 18 18 19 19 17 18 16 15 13 10 6 6 11 14 13 13 12 12 11 10 9 9
30 30 30 29 29 30 30 31 30 30 30 31 31 31 32 32 32 30 23 21 20 19 21 22 20 19 18 17 15 13 10 8 4 6 11 14 14 13 12 12 11 11 10 10
29 30 30 30 31 31 31 31 31 32 33 32 31 31 31 31 30 26 23 23 22 22 21 20 18 17 17 17 14 11 11 9 6 8 13 14 14 14 13 12 11 11 12 11
27 27 28 30 31 31 31 32 30 30 31 31 31 31 31 30 26 24 22 22 21 22 19 19 16 16 14 15 12 13 13 11 10 10 12 14 14 13 12 12 12 12 12 11
27 27 27 28 28 28 30 31 30 29 29 30 29 28 27 25 22 22 22 23 21 20 19 19 19 14 13 14 11 13 12 8 9 11 13 14 14 14 12 12 12 12 12 12
28 28 30 31 30 31 30 28 26 26 27 27 27 26 25 24 22 21 20 21 20 21 21 19 16 14 13 13 14 14 11 10 11 12 13 15 15 14 12 12 12 13 12 12
28 29 32 32 30 29 29 28 25 24 23 22 23 23 22 22 21 20 21 22 21 20 19 19 17 13 13 16 15 14 12 12 12 13 14 14 15 14 13 13 13 13 13 12
30 32 32 30 30 30 28 25 24 22 22 21 21 21 21 22 24 20 21 21 20 18 19 16 14 12 16 15 14 13 13 13 13 14 14 14 14 14 14 14 14 13 13 13
32 32 32 31 30 29 27 25 25 23 21 21 21 22 22 22 21 21 20 19 18 17 17 15 14 14 15 14 13 13 13 13 13 13 14 15 15 15 15 15 14 13 13 14
32 30 29 28 27 26 26 25 25 24 21 23 22 22 22 21 20 19 19 19 18 18 16 16 14 13 14 14 13 13 13 15 14 15 15 16 16 16 16 15 15 14 14 13
Wind_Speed
2 3 1 1 3 5 8 5 9 12 12 18 12 14 18 19 18 22 24 25 23 21 20 18 17 15 14 13 12 12 11 9 8 6 4 3 3 2 3 4 5 7 6 7
1 2 4 7 4 7 11 10 14 16 26 14 13 8 9 15 20 24 25 26 24 23 20 20 20 18 16 15 14 13 12 10 8 7 5 3 1 2 3 4 5 6 6 7
3 3 5 11 13 14 9 8 7 14 18 8 11 13 14 16 23 28 27 26 27 25 22 22 22 20 19 17 15 14 12 10 9 7 5 4 1 3 4 5 6 6 7 8
3 2 8 2 5 3 9 10 11 18 21 21 19 10 11 12 20 20 23 25 26 22 22 22 20 18 16 17 17 15 13 11 9 7 5 5 2 3 4 6 7 8 8 9
3 5 6 10 2 4 0 7 8 12 15 9 4 5 9 9 14 20 25 26 25 22 21 20 20 20 19 18 17 15 13 11 9 7 6 4 3 4 5 7 7 7 8 9
4 3 5 4 7 5 3 16 2 3 7 4 1 5 6 9 11 13 16 17 18 19 18 20 21 21 20 19 18 16 14 11 9 7 5 4 2 3 5 6 8 9 9 8
9 7 8 8 7 7 1 7 3 3 4 5 6 6 7 7 10 11 13 16 16 19 22 23 22 22 21 18 19 15 12 10 8 6 5 3 2 3 4 6 8 9 9 9
6 9 13 10 7 7 7 4 5 5 6 9 12 6 4 10 11 13 14 15 17 19 20 21 22 22 20 19 15 14 13 10 8 6 5 4 4 4 4 6 8 9 10 9
13 10 3 9 7 8 4 6 6 6 7 10 12 13 11 13 14 14 15 15 17 18 19 19 22 22 20 17 17 16 13 11 9 7 6 5 5 4 5 6 7 8 9 10
6 8 15 13 10 12 11 16 15 12 10 10 16 17 18 13 13 14 15 17 17 18 20 21 21 20 18 18 18 17 14 11 9 8 7 5 4 4 5 6 7 7 8 11
12 10 11 15 16 18 18 17 19 16 13 16 15 17 20 17 17 17 16 15 17 20 20 21 21 19 16 18 19 16 13 11 9 8 8 6 6 5 5 5 6 8 9 10
18 13 16 13 13 10 14 19 18 15 13 13 15 21 17 20 17 16 17 16 18 19 19 20 21 20 19 19 19 17 13 11 10 8 7 6 6 5 5 6 7 8 8 8
14 6 10 13 11 10 9 12 11 11 14 13 15 16 13 16 16 13 13 17 22 26 21 19 21 21 20 20 19 17 13 11 9 9 7 7 6 6 6 4 6 6 6 9
12 7 8 13 14 8 13 13 6 8 10 11 12 8 12 15 8 15 20 25 20 18 20 21 21 21 21 20 18 14 12 11 9 9 8 7 6 5 5 6 7 6 5 8
18 14 20 18 9 16 12 8 11 13 14 15 12 15 14 16 17 20 16 13 15 17 19 21 21 21 22 22 19 17 14 11 10 8 8 7 6 5 5 6 8 10 11 8
18 21 24 22 26 21 18 17 20 20 17 19 17 19 18 16 16 11 11 16 20 25 22 21 22 21 22 22 19 15 13 12 11 9 7 8 7 6 6 6 7 7 8 9
19 22 20 20 20 19 15 15 18 19 18 17 22 21 16 14 10 12 15 18 18 17 20 22 22 22 22 21 20 15 13 12 11 8 9 8 7 7 6 7 7 8 9 7
23 22 17 15 14 15 16 15 16 18 20 22 19 16 15 14 20 17 14 13 12 14 18 20 22 22 21 20 17 14 13 12 11 10 9 9 8 7 7 8 8 9 9 9
17 20 22 23 24 24 22 20 21 20 17 16 13 18 18 19 17 11 14 18 20 21 16 18 21 22 20 19 17 14 13 12 10 9 9 8 8 8 8 8 9 9 9 10
11 10 14 19 19 19 21 19 16 16 15 10 12 14 18 17 12 13 17 19 17 10 21 21 22 20 19 19 17 14 14 13 11 9 9 9 9 9 8 9 11 10 10 11
11 11 13 14 16 11 12 12 11 14 13 8 12 17 17 9 10 14 14 13 10 16 20 24 20 17 17 18 17 13 13 12 11 9 9 10 9 9 9 10 10 10 11 12
11 14 16 15 14 14 7 6 7 9 10 9 8 8 6 6 10 11 7 10 13 19 19 17 17 19 18 19 15 13 13 12 10 8 9 9 9 9 9 10 10 10 11 12
16 15 15 12 10 7 4 4 5 6 8 7 5 5 7 7 11 13 12 10 17 18 16 16 17 21 22 16 13 13 13 11 9 9 9 9 10 9 9 10 10 10 12 13
15 15 11 5 4 5 6 4 4 4 4 3 4 7 8 8 6 2 4 15 18 21 15 16 19 21 20 14 13 12 11 9 9 9 9 9 9 9 10 10 10 11 12 13
15 14 8 8 10 9 5 3 1 2 2 1 2 5 4 4 4 8 10 13 18 17 14 17 21 22 14 12 11 11 10 8 8 9 9 9 9 10 10 10 11 11 12 13
10 10 9 10 8 5 4 4 4 3 2 2 2 4 5 4 5 10 10 13 15 14 14 15 15 14 11 11 11 10 8 8 9 10 10 9 10 10 10 11 11 12 12 13
6 5 6 7 7 7 7 7 5 4 5 5 4 5 6 6 7 10 11 12 13 12 12 12 12 12 11 10 9 9 9 9 10 9 9 10 10 11 11 11 11 12 12 13
Wind_Direction
77 77 21 261 219 183 213 218 228 267 250 272 262 250 232 213 193 186 189 188 186 182 181 179 176 168 167 168 162 157 156 152 150 152 153 142 117 45 3 354 345 340 339 344
39 25 8 281 240 239 246 254 252 259 270 283 263 259 231 210 190 199 199 195 188 188 184 181 182 178 176 173 174 174 168 163 161 167 173 163 152 324 333 335 333 329 338 338
268 11 343 284 256 243 248 247 248 255 270 282 274 253 248 223 205 209 203 193 190 192 187 187 189 180 182 179 177 180 174 170 173 178 185 180 205 311 323 324 324 335 340 334
170 161 270 264 195 201 245 262 244 262 263 265 272 274 270 240 215 207 196 193 195 192 189 191 185 182 178 178 182 183 179 178 182 189 192 184 241 306 313 318 328 337 334 328
201 214 308 287 180 128 170 294 262 272 288 288 297 294 273 214 208 202 195 195 197 192 187 180 180 179 178 182 185 185 185 187 190 196 194 196 263 303 317 318 327 330 326 322
141 213 255 223 189 155 138 303 303 283 313 295 185 293 299 197 184 188 193 191 183 180 178 179 180 176 179 185 187 193 190 191 189 191 194 213 259 297 310 315 319 322 320 319
194 232 273 241 177 136 222 259 301 287 289 194 222 237 311 181 178 185 184 183 179 179 187 188 176 176 185 185 196 190 180 180 184 187 198 212 242 281 299 312 315 314 317 315
195 222 256 191 130 198 216 225 250 271 265 238 228 269 256 196 184 181 182 179 182 184 189 181 178 180 187 193 185 174 176 182 188 192 197 206 240 265 294 308 309 314 319 319
197 210 205 195 220 212 194 230 245 255 270 234 222 222 207 206 198 197 194 191 187 189 184 182 182 187 189 187 172 172 178 189 192 196 206 213 241 258 281 291 301 311 316 319
210 223 243 246 251 257 236 240 251 250 264 223 228 219 217 216 214 206 200 198 188 185 189 186 188 191 194 173 171 174 184 189 193 204 209 222 237 250 265 283 299 307 315 318
248 265 272 269 252 254 255 246 254 257 243 239 232 233 221 217 220 215 206 198 193 196 196 194 186 188 180 171 171 180 186 189 197 207 212 228 235 249 259 276 286 301 309 312
241 232 235 249 264 267 258 259 250 251 252 245 227 238 222 230 228 218 212 198 199 203 201 192 186 186 179 173 177 181 187 193 201 204 211 223 234 244 234 273 276 289 299 305
253 254 239 259 270 270 248 254 256 238 237 250 242 239 237 242 239 229 217 206 207 206 199 187 185 186 180 177 177 181 191 193 194 198 210 220 232 255 284 289 284 287 303 316
248 249 266 257 251 239 239 253 252 249 251 248 259 253 251 247 233 228 223 220 212 195 185 186 185 183 177 173 174 178 186 186 192 198 207 213 227 255 284 298 304 304 295 309
251 224 236 247 247 252 244 241 246 252 259 267 259 262 261 259 252 244 234 209 190 185 185 187 179 180 172 171 173 177 182 185 188 195 201 208 218 238 266 284 299 312 323 327
246 241 241 247 252 254 241 247 250 251 258 262 269 268 263 258 259 247 208 182 182 199 192 182 183 171 167 170 172 176 181 176 180 191 197 209 219 238 256 267 284 295 303 312
253 256 260 260 260 267 260 254 245 250 251 254 260 262 266 266 250 237 219 203 201 189 181 178 177 167 167 166 170 174 177 175 179 192 206 213 222 238 254 264 280 288 295 297
241 252 252 258 266 267 268 263 260 254 252 258 264 264 259 239 245 239 212 184 171 171 179 176 162 159 162 162 166 168 172 171 180 201 207 212 223 236 251 260 275 283 296 302
254 256 260 265 269 267 264 255 250 254 259 259 257 253 248 244 241 222 178 181 188 190 183 158 155 156 162 161 162 164 169 172 184 200 209 215 220 236 249 258 271 277 290 301
276 262 263 265 262 247 254 257 265 268 266 264 261 264 261 255 226 199 184 199 198 193 156 160 159 165 159 161 159 168 172 179 190 202 207 216 227 241 254 259 267 278 287 291
304 305 294 284 279 272 253 263 263 265 276 259 253 260 260 249 199 178 182 198 180 160 159 156 160 160 165 164 167 171 175 182 195 204 212 219 233 245 259 264 268 278 285 287
306 305 305 296 286 288 263 268 280 289 293 292 279 263 241 216 180 177 188 191 165 157 154 160 167 165 163 158 169 173 182 191 199 205 217 223 233 247 260 261 269 279 284 285
301 296 296 291 278 278 296 303 316 319 317 311 292 244 217 207 186 171 182 170 161 164 161 165 160 153 153 160 169 179 186 191 201 213 222 227 235 249 258 263 272 281 286 287
301 296 281 259 239 243 271 279 310 322 302 294 245 207 180 168 172 204 136 158 160 160 163 157 153 154 158 167 174 180 184 195 210 218 223 232 239 250 255 266 276 279 281 284
294 288 258 234 241 252 239 199 223 250 226 165 137 161 175 173 186 181 163 157 157 157 150 150 156 160 164 169 172 176 188 201 210 213 222 235 244 251 260 268 274 279 282 283
286 264 245 241 242 225 206 186 236 232 202 134 131 152 155 159 151 148 139 144 155 152 152 157 161 162 166 169 173 181 191 203 208 219 229 242 250 258 265 270 275 276 276 281
266 239 235 242 240 219 190 192 205 228 205 196 184 178 166 151 144 142 142 149 156 157 153 152 158 166 167 170 179 190 201 212 220 229 237 249 257 263 267 272 276 278 281 281